CW1172 Uddevalla SE current weather conditions

sailwx.info

Wind from 126

Air temperature 4.4° C
Dewpoint 4.4° C

Last reported at 2019-Nov-19 18:01 UTC.
Time now 2019-Nov-19 19:02 UTC

Location: N 58°13' E 011°56'.
View on Google Maps.

See reports from other nearby stations

  
Tides and Currents Weather Stations Pressure Air Temp Water Temp Dewpoint Dewpoint Depression Visibility Wind Speed Wind Dir Waves Ship Positions
date/time (UTC)wind fromknots sea level pressurealtimeterstation pressurevisibilityair tempwater tempwave heightnotes
2019-Nov-19 18:01 126 4.4
2019-Nov-19 17:46 126 4.4
2019-Nov-19 17:31 124 4.4
2019-Nov-19 17:15 126 4.4
2019-Nov-19 17:00 123 4.4
2019-Nov-19 16:46 130 4.4
2019-Nov-19 16:30 121 4.4
2019-Nov-19 16:15 128 0 5.0
2019-Nov-19 16:00 102 5.0
2019-Nov-19 15:45 160 5.0
2019-Nov-19 15:30 126 5.0
2019-Nov-19 15:15 130 0 5.0
2019-Nov-19 15:00 155 0 5.0
2019-Nov-19 14:45 121 5.0
2019-Nov-19 14:30 133 5.6
2019-Nov-19 14:15 121 0 5.6
2019-Nov-19 14:00 119 0 5.6
2019-Nov-19 13:45 126 0 5.6
2019-Nov-19 13:30 134 5.6
2019-Nov-19 13:15 167 0 5.6
2019-Nov-19 13:00 121 5.6
2019-Nov-19 12:45 110 1 5.6
2019-Nov-19 12:30 138 1 5.6
2019-Nov-19 12:15 148 0 6.1
2019-Nov-19 12:01 140 1 6.1
2019-Nov-19 12:00 136 1 6.1
2019-Nov-19 11:46 119 0 6.1
2019-Nov-19 11:33 138 6.1
2019-Nov-19 11:18 123 0 6.1
2019-Nov-19 11:01 157 0 6.1
2019-Nov-19 10:47 184 2 6.1
2019-Nov-19 10:32 186 2 6.1
2019-Nov-19 10:16 130 3 6.1
2019-Nov-19 10:01 145 1 6.7
2019-Nov-19 09:46 133 1 6.7
2019-Nov-19 09:31 155 0 6.7
2019-Nov-19 09:16 155 0 6.7
2019-Nov-19 09:02 157 0 6.7
2019-Nov-19 08:46 143 1 6.7
2019-Nov-19 08:31 137 6.7
2019-Nov-19 08:16 104 6.7
2019-Nov-19 08:01 123 0 6.7
2019-Nov-19 07:46 116 6.7
2019-Nov-19 07:31 134 6.7
2019-Nov-19 07:16 133 6.7
2019-Nov-19 07:00 182 6.7
2019-Nov-19 06:46 184 6.7
2019-Nov-19 06:31 182 6.7
2019-Nov-19 06:16 172 7.2
2019-Nov-19 06:00 148 2 7.2
2019-Nov-19 05:46 176 3 7.2
2019-Nov-19 05:30 148 5 7.8
2019-Nov-19 05:15 199 1 8.3
2019-Nov-19 05:00 224 0 8.3
2019-Nov-19 04:46 205 2 8.9
2019-Nov-19 04:30 205 1 8.9
2019-Nov-19 04:15 137 0 8.9
2019-Nov-19 04:00 138 8.9
2019-Nov-19 03:45 133 8.9
2019-Nov-19 03:30 120 9.4
2019-Nov-19 03:15 136 8.9
2019-Nov-19 03:02 097 0 8.9
2019-Nov-19 02:48 117 1 8.9
2019-Nov-19 02:31 128 2 8.9
2019-Nov-19 02:17 127 0 8.9
2019-Nov-19 02:01 133 0 8.9
2019-Nov-19 01:46 140 0 8.9
2019-Nov-19 01:31 147 1 8.9
2019-Nov-19 01:16 131 1 8.9
2019-Nov-19 01:00 130 1 8.9
2019-Nov-19 00:46 131 1 8.9
2019-Nov-19 00:30 133 3 8.9
2019-Nov-19 00:15 150 2 8.9
2019-Nov-19 00:00 096 0 8.9
2019-Nov-18 23:45 131 1 8.9
2019-Nov-18 23:30 114 1 8.9
2019-Nov-18 23:15 143 0 8.9
2019-Nov-18 23:01 102 0 8.9
2019-Nov-18 22:47 119 0 8.9
2019-Nov-18 22:32 078 2 8.9
2019-Nov-18 22:16 133 1 8.9
2019-Nov-18 22:01 096 2 8.9
2019-Nov-18 21:46 085 0 8.9
2019-Nov-18 21:31 092 1 8.9
2019-Nov-18 21:16 107 0 8.3
2019-Nov-18 21:00 144 0 8.9
2019-Nov-18 20:45 106 1 8.3
2019-Nov-18 20:30 096 0 8.3
2019-Nov-18 20:15 097 1 8.3
2019-Nov-18 20:00 090 8.3
2019-Nov-18 19:45 112 0 8.3
2019-Nov-18 19:31 106 0 8.3
2019-Nov-18 19:16 168 1 8.3
2019-Nov-18 19:02 078 8.3
2019-Nov-18 18:47 095 0 8.3
2019-Nov-18 18:33 082 0 8.3
2019-Nov-18 18:16 092 0 8.3
2019-Nov-18 18:02 113 0 8.3
2019-Nov-18 17:46 109 1 8.3
2019-Nov-18 17:31 119 0 8.3
2019-Nov-18 17:16 085 0 8.3
2019-Nov-18 17:01 099 1 8.3
2019-Nov-18 16:46 090 0 8.3
2019-Nov-18 16:31 061 0 8.3
2019-Nov-18 16:16 106 1 8.3
2019-Nov-18 16:01 099 1 8.3
2019-Nov-18 15:47 097 0 8.3
2019-Nov-18 15:31 123 8.3
2019-Nov-18 15:16 100 8.3
2019-Nov-18 15:01 107 0 8.3
2019-Nov-18 14:46 120 1 8.3
2019-Nov-18 14:31 080 8.3
2019-Nov-18 14:15 037 1 8.3
2019-Nov-18 14:01 089 1 8.3
2019-Nov-18 13:45 104 2 8.3
2019-Nov-18 13:31 112 1 8.3
2019-Nov-18 13:16 104 1 8.3
2019-Nov-18 13:00 086 0 7.8
2019-Nov-18 12:45 076 1 7.8
2019-Nov-18 12:30 096 0 7.8
2019-Nov-18 12:15 103 0 7.8
2019-Nov-18 12:00 079 0 7.2
2019-Nov-18 11:45 078 0 7.2
2019-Nov-18 11:30 051 0 7.2
2019-Nov-18 11:15 102 0 6.7
2019-Nov-18 11:00 010 0 6.7
2019-Nov-18 10:45 042 6.7
2019-Nov-18 10:30 112 6.7
2019-Nov-18 10:15 086 6.1
2019-Nov-18 10:00 035 6.1
2019-Nov-18 09:45 114 1 6.1
2019-Nov-18 09:30 119 3 6.1
2019-Nov-18 09:15 038 4 6.1
2019-Nov-18 09:00 116 5 6.1
2019-Nov-18 08:47 113 6 6.1
2019-Nov-18 08:31 097 5 6.1
2019-Nov-18 08:16 123 7 6.1
2019-Nov-18 08:02 092 7 6.1
2019-Nov-18 07:46 082 6 6.1
2019-Nov-18 07:31 016 6 6.1
2019-Nov-18 07:16 096 5 6.1
2019-Nov-18 07:01 075 5 6.1
2019-Nov-18 06:46 083 3 6.1
2019-Nov-18 06:30 011 2 6.1
2019-Nov-18 06:15 110 2 6.1
2019-Nov-18 06:01 059 1 6.1
2019-Nov-18 05:46 095 2 6.1
2019-Nov-18 05:31 003 1 6.1
2019-Nov-18 05:16 076 0 6.7
2019-Nov-18 05:01 102 6.7
2019-Nov-18 04:46 042 0 6.7
2019-Nov-18 04:30 045 6.1
2019-Nov-18 04:16 031 6.1
2019-Nov-18 04:00 6.1
2019-Nov-18 03:45 003 0 6.1
2019-Nov-18 03:30 016 1 6.1
2019-Nov-18 03:15 047 1 6.1
2019-Nov-18 03:00 104 1 6.1
2019-Nov-18 02:46 082 0 6.1
2019-Nov-18 02:30 042 6.1
2019-Nov-18 02:15 049 0 6.1
2019-Nov-18 02:00 097 0 6.1
2019-Nov-18 01:45 144 0 6.1
2019-Nov-18 01:30 038 0 6.1
2019-Nov-18 01:15 090 0 6.1
2019-Nov-18 01:00 095 0 6.1
2019-Nov-18 00:45 106 0 6.1
2019-Nov-18 00:30 086 6.7
2019-Nov-18 00:15 137 6.7
2019-Nov-18 00:00 106 0 6.7
2019-Nov-17 23:45 076 6.7
2019-Nov-17 23:30 110 6.7
2019-Nov-17 23:15 113 6.7
2019-Nov-17 22:46 127 1 6.7
2019-Nov-17 22:32 112 0 6.7
2019-Nov-17 22:17 097 0 7.2
2019-Nov-17 22:03 120 7.2
2019-Nov-17 21:47 141 7.2
2019-Nov-17 21:32 130 7.2
2019-Nov-17 21:16 131 7.2
2019-Nov-17 21:02 157 7.2
2019-Nov-17 20:47 141 0 7.2
2019-Nov-17 20:31 145 0 7.2
2019-Nov-17 20:17 172 0 7.8
2019-Nov-17 20:02 157 7.8
2019-Nov-17 19:46 157 7.8
2019-Nov-17 19:31 151 0 7.8
2019-Nov-17 19:16 145 1 7.8
2019-Nov-17 19:01 147 0 7.8